Index of /20260430/WXO-DD/model_gdps/15km/00/201
Name Last modified Size Description
Parent Directory -
20260430T00Z_MSC_GDPS_AirTemp_AGL-120m_LatLon0.15_PT201H.grib2 2026-04-30 04:34 899K
20260430T00Z_MSC_GDPS_AirTemp_AGL-2m_LatLon0.15_PT201H.grib2 2026-04-30 04:34 1.0M
20260430T00Z_MSC_GDPS_AirTemp_AGL-40m_LatLon0.15_PT201H.grib2 2026-04-30 04:34 802K
20260430T00Z_MSC_GDPS_AirTemp_AGL-80m_LatLon0.15_PT201H.grib2 2026-04-30 04:34 791K
20260430T00Z_MSC_GDPS_AirTemp_IsbL-0001_LatLon0.15_PT201H.grib2 2026-04-30 04:34 658K
20260430T00Z_MSC_GDPS_AirTemp_IsbL-0005_LatLon0.15_PT201H.grib2 2026-04-30 04:34 691K
20260430T00Z_MSC_GDPS_AirTemp_IsbL-0500_LatLon0.15_PT201H.grib2 2026-04-30 04:34 1.0M
20260430T00Z_MSC_GDPS_AirTemp_IsbL-0700_LatLon0.15_PT201H.grib2 2026-04-30 04:34 952K
20260430T00Z_MSC_GDPS_AirTemp_IsbL-0850_LatLon0.15_PT201H.grib2 2026-04-30 04:34 1.1M
20260430T00Z_MSC_GDPS_AirTemp_IsbL-0925_LatLon0.15_PT201H.grib2 2026-04-30 04:34 1.1M
20260430T00Z_MSC_GDPS_AirTemp_IsbL-1000_LatLon0.15_PT201H.grib2 2026-04-30 04:34 1.1M
20260430T00Z_MSC_GDPS_Albedo_Sfc_LatLon0.15_PT201H.grib2 2026-04-30 04:34 241K
20260430T00Z_MSC_GDPS_ConvectivePrecip-Accum_Sfc_LatLon0.15_PT201H.grib2 2026-04-30 04:34 3.7M
20260430T00Z_MSC_GDPS_DewPointDepression_AGL-2m_LatLon0.15_PT201H.grib2 2026-04-30 04:34 760K
20260430T00Z_MSC_GDPS_DewPointDepression_IsbL-0500_LatLon0.15_PT201H.grib2 2026-04-30 04:34 1.0M
20260430T00Z_MSC_GDPS_DewPointDepression_IsbL-0700_LatLon0.15_PT201H.grib2 2026-04-30 04:34 1.1M
20260430T00Z_MSC_GDPS_DewPointDepression_IsbL-0850_LatLon0.15_PT201H.grib2 2026-04-30 04:34 1.2M
20260430T00Z_MSC_GDPS_DewPointDepression_IsbL-0925_LatLon0.15_PT201H.grib2 2026-04-30 04:34 1.0M
20260430T00Z_MSC_GDPS_DewPointDepression_IsbL-1000_LatLon0.15_PT201H.grib2 2026-04-30 04:34 963K
20260430T00Z_MSC_GDPS_DewPoint_AGL-2m_LatLon0.15_PT201H.grib2 2026-04-30 04:34 607K
20260430T00Z_MSC_GDPS_DownwardLongwaveRadiationFlux-Accum_Sfc_LatLon0.15_PT201H.grib2 2026-04-30 04:34 710K
20260430T00Z_MSC_GDPS_DownwardShortwaveRadiationFlux-Accum_Sfc_LatLon0.15_PT201H.grib2 2026-04-30 04:34 880K
20260430T00Z_MSC_GDPS_FreezingRain-Accum_Sfc_LatLon0.15_PT201H.grib2 2026-04-30 04:34 392K
20260430T00Z_MSC_GDPS_GeopotentialHeight_IsbL-0001_LatLon0.15_PT201H.grib2 2026-04-30 04:34 441K
20260430T00Z_MSC_GDPS_GeopotentialHeight_IsbL-0005_LatLon0.15_PT201H.grib2 2026-04-30 04:34 488K
20260430T00Z_MSC_GDPS_GeopotentialHeight_IsbL-0500_LatLon0.15_PT201H.grib2 2026-04-30 04:34 530K
20260430T00Z_MSC_GDPS_GeopotentialHeight_IsbL-0700_LatLon0.15_PT201H.grib2 2026-04-30 04:34 694K
20260430T00Z_MSC_GDPS_GeopotentialHeight_IsbL-0850_LatLon0.15_PT201H.grib2 2026-04-30 04:34 721K
20260430T00Z_MSC_GDPS_GeopotentialHeight_IsbL-0925_LatLon0.15_PT201H.grib2 2026-04-30 04:34 736K
20260430T00Z_MSC_GDPS_GeopotentialHeight_IsbL-1000_LatLon0.15_PT201H.grib2 2026-04-30 04:34 788K
20260430T00Z_MSC_GDPS_IcePellets-Accum_Sfc_LatLon0.15_PT201H.grib2 2026-04-30 04:34 129K
20260430T00Z_MSC_GDPS_LatentHeatNetFlux_Sfc_LatLon0.15_PT201H.grib2 2026-04-30 04:34 564K
20260430T00Z_MSC_GDPS_NetLongwaveRadiationFlux-Accum_Sfc_LatLon0.15_PT201H.grib2 2026-04-30 04:34 900K
20260430T00Z_MSC_GDPS_NetShortwaveRadiationFlux-Accum_Sfc_LatLon0.15_PT201H.grib2 2026-04-30 04:34 859K
20260430T00Z_MSC_GDPS_O3MixingRatio_Sfc_LatLon0.15_PT201H.grib2 2026-04-30 04:52 1.9M
20260430T00Z_MSC_GDPS_O3_EAtm_LatLon0.15_PT201H.grib2 2026-04-30 04:52 2.4M
20260430T00Z_MSC_GDPS_PlanetaryBoundaryLayerHeight_Sfc_LatLon0.15_PT201H.grib2 2026-04-30 04:34 2.5M
20260430T00Z_MSC_GDPS_Precip-Accum_Sfc_LatLon0.15_PT201H.grib2 2026-04-30 04:34 5.1M
20260430T00Z_MSC_GDPS_PrecipRate_Sfc_LatLon0.15_PT201H.grib2 2026-04-30 04:34 3.0M
20260430T00Z_MSC_GDPS_Pressure_MSL_LatLon0.15_PT201H.grib2 2026-04-30 04:34 719K
20260430T00Z_MSC_GDPS_Pressure_Sfc_LatLon0.15_PT201H.grib2 2026-04-30 04:34 1.1M
20260430T00Z_MSC_GDPS_RadiativeTemp_Sfc_LatLon0.15_PT201H.grib2 2026-04-30 04:34 507K
20260430T00Z_MSC_GDPS_Rain-Accum_Sfc_LatLon0.15_PT201H.grib2 2026-04-30 04:34 4.0M
20260430T00Z_MSC_GDPS_RelativeHumidity_AGL-2m_LatLon0.15_PT201H.grib2 2026-04-30 04:34 1.0M
20260430T00Z_MSC_GDPS_Runoff-Accum_Sfc_LatLon0.15_PT201H.grib2 2026-04-30 04:34 130K
20260430T00Z_MSC_GDPS_SensibleHeatNetFlux_Sfc_LatLon0.15_PT201H.grib2 2026-04-30 04:34 498K
20260430T00Z_MSC_GDPS_Snow-Accum_Sfc_LatLon0.15_PT201H.grib2 2026-04-30 04:34 2.1M
20260430T00Z_MSC_GDPS_SnowDepth_Sfc_LatLon0.15_PT201H.grib2 2026-04-30 04:34 1.7M
20260430T00Z_MSC_GDPS_SoilTemp_DBS-0to10cm_LatLon0.15_PT201H.grib2 2026-04-30 04:34 514K
20260430T00Z_MSC_GDPS_SoilTemp_Sfc_LatLon0.15_PT201H.grib2 2026-04-30 04:34 595K
20260430T00Z_MSC_GDPS_SoilVolumetricWaterContent_DBS-0to10cm_LatLon0.15_PT201H.grib2 2026-04-30 04:34 594K
20260430T00Z_MSC_GDPS_SoilVolumetricWaterContent_DBS-0to1cm_LatLon0.15_PT201H.grib2 2026-04-30 04:34 650K
20260430T00Z_MSC_GDPS_SpecificHumidity_AGL-120m_LatLon0.15_PT201H.grib2 2026-04-30 04:34 1.1M
20260430T00Z_MSC_GDPS_SpecificHumidity_AGL-2m_LatLon0.15_PT201H.grib2 2026-04-30 04:34 1.2M
20260430T00Z_MSC_GDPS_SpecificHumidity_AGL-40m_LatLon0.15_PT201H.grib2 2026-04-30 04:34 1.1M
20260430T00Z_MSC_GDPS_SpecificHumidity_AGL-80m_LatLon0.15_PT201H.grib2 2026-04-30 04:34 1.1M
20260430T00Z_MSC_GDPS_SpecificHumidity_IsbL-0001_LatLon0.15_PT201H.grib2 2026-04-30 04:34 1.1M
20260430T00Z_MSC_GDPS_SpecificHumidity_IsbL-0005_LatLon0.15_PT201H.grib2 2026-04-30 04:34 1.0M
20260430T00Z_MSC_GDPS_SpecificHumidity_IsbL-0500_LatLon0.15_PT201H.grib2 2026-04-30 04:34 1.4M
20260430T00Z_MSC_GDPS_SpecificHumidity_IsbL-0700_LatLon0.15_PT201H.grib2 2026-04-30 04:34 1.6M
20260430T00Z_MSC_GDPS_SpecificHumidity_IsbL-0850_LatLon0.15_PT201H.grib2 2026-04-30 04:34 2.0M
20260430T00Z_MSC_GDPS_SpecificHumidity_IsbL-0925_LatLon0.15_PT201H.grib2 2026-04-30 04:34 1.6M
20260430T00Z_MSC_GDPS_SpecificHumidity_IsbL-1000_LatLon0.15_PT201H.grib2 2026-04-30 04:34 1.5M
20260430T00Z_MSC_GDPS_SpecificHumidity_Sfc_LatLon0.15_PT201H.grib2 2026-04-30 04:34 602K
20260430T00Z_MSC_GDPS_Thickness_IsbL-0850to0700_LatLon0.15_PT201H.grib2 2026-04-30 04:34 472K
20260430T00Z_MSC_GDPS_Thickness_IsbL-1000to0500_LatLon0.15_PT201H.grib2 2026-04-30 04:34 376K
20260430T00Z_MSC_GDPS_Thickness_IsbL-1000to0850_LatLon0.15_PT201H.grib2 2026-04-30 04:34 490K
20260430T00Z_MSC_GDPS_TotalCloudCover_Sfc_LatLon0.15_PT201H.grib2 2026-04-30 04:34 821K
20260430T00Z_MSC_GDPS_UVIndex-ClearSky_Sfc_LatLon0.15_PT201H.grib2 2026-04-30 04:52 1.1M
20260430T00Z_MSC_GDPS_UVIndex_Sfc_LatLon0.15_PT201H.grib2 2026-04-30 04:52 1.5M
20260430T00Z_MSC_GDPS_UpwardLongwaveRadiationFlux_NTAtm_LatLon0.15_PT201H.grib2 2026-04-30 04:34 839K
20260430T00Z_MSC_GDPS_VerticalVelocity_IsbL-0500_LatLon0.15_PT201H.grib2 2026-04-30 04:34 1.3M
20260430T00Z_MSC_GDPS_VerticalVelocity_IsbL-0700_LatLon0.15_PT201H.grib2 2026-04-30 04:34 1.1M
20260430T00Z_MSC_GDPS_VerticalVelocity_IsbL-0850_LatLon0.15_PT201H.grib2 2026-04-30 04:34 1.3M
20260430T00Z_MSC_GDPS_WindDir_AGL-10m_LatLon0.15_PT201H.grib2 2026-04-30 04:34 1.3M
20260430T00Z_MSC_GDPS_WindDir_AGL-120m_LatLon0.15_PT201H.grib2 2026-04-30 04:34 1.3M
20260430T00Z_MSC_GDPS_WindDir_AGL-40m_LatLon0.15_PT201H.grib2 2026-04-30 04:34 1.4M
20260430T00Z_MSC_GDPS_WindDir_AGL-80m_LatLon0.15_PT201H.grib2 2026-04-30 04:34 1.3M
20260430T00Z_MSC_GDPS_WindDir_IsbL-0001_LatLon0.15_PT201H.grib2 2026-04-30 04:34 652K
20260430T00Z_MSC_GDPS_WindDir_IsbL-0005_LatLon0.15_PT201H.grib2 2026-04-30 04:34 809K
20260430T00Z_MSC_GDPS_WindDir_IsbL-0500_LatLon0.15_PT201H.grib2 2026-04-30 04:34 1.3M
20260430T00Z_MSC_GDPS_WindDir_IsbL-0700_LatLon0.15_PT201H.grib2 2026-04-30 04:34 1.6M
20260430T00Z_MSC_GDPS_WindDir_IsbL-0850_LatLon0.15_PT201H.grib2 2026-04-30 04:34 1.9M
20260430T00Z_MSC_GDPS_WindDir_IsbL-0925_LatLon0.15_PT201H.grib2 2026-04-30 04:34 1.9M
20260430T00Z_MSC_GDPS_WindDir_IsbL-1000_LatLon0.15_PT201H.grib2 2026-04-30 04:34 2.0M
20260430T00Z_MSC_GDPS_WindGust-Max_AGL-10m_LatLon0.15_PT201H.grib2 2026-04-30 04:34 2.2M
20260430T00Z_MSC_GDPS_WindGust-Min_AGL-10m_LatLon0.15_PT201H.grib2 2026-04-30 04:34 2.1M
20260430T00Z_MSC_GDPS_WindGust_AGL-10m_LatLon0.15_PT201H.grib2 2026-04-30 04:34 2.1M
20260430T00Z_MSC_GDPS_WindSpeed_AGL-10m_LatLon0.15_PT201H.grib2 2026-04-30 04:34 1.1M
20260430T00Z_MSC_GDPS_WindSpeed_AGL-120m_LatLon0.15_PT201H.grib2 2026-04-30 04:34 1.2M
20260430T00Z_MSC_GDPS_WindSpeed_AGL-40m_LatLon0.15_PT201H.grib2 2026-04-30 04:34 1.2M
20260430T00Z_MSC_GDPS_WindSpeed_AGL-80m_LatLon0.15_PT201H.grib2 2026-04-30 04:34 1.2M
20260430T00Z_MSC_GDPS_WindSpeed_IsbL-0001_LatLon0.15_PT201H.grib2 2026-04-30 04:34 651K
20260430T00Z_MSC_GDPS_WindSpeed_IsbL-0005_LatLon0.15_PT201H.grib2 2026-04-30 04:34 688K
20260430T00Z_MSC_GDPS_WindSpeed_IsbL-0500_LatLon0.15_PT201H.grib2 2026-04-30 04:34 1.1M
20260430T00Z_MSC_GDPS_WindSpeed_IsbL-0700_LatLon0.15_PT201H.grib2 2026-04-30 04:34 1.5M
20260430T00Z_MSC_GDPS_WindSpeed_IsbL-0850_LatLon0.15_PT201H.grib2 2026-04-30 04:34 1.7M
20260430T00Z_MSC_GDPS_WindSpeed_IsbL-0925_LatLon0.15_PT201H.grib2 2026-04-30 04:34 1.8M
20260430T00Z_MSC_GDPS_WindSpeed_IsbL-1000_LatLon0.15_PT201H.grib2 2026-04-30 04:34 1.8M
20260430T00Z_MSC_GDPS_WindU_AGL-10m_LatLon0.15_PT201H.grib2 2026-04-30 04:34 1.3M
20260430T00Z_MSC_GDPS_WindU_AGL-120m_LatLon0.15_PT201H.grib2 2026-04-30 04:34 1.0M
20260430T00Z_MSC_GDPS_WindU_AGL-40m_LatLon0.15_PT201H.grib2 2026-04-30 04:34 953K
20260430T00Z_MSC_GDPS_WindU_AGL-80m_LatLon0.15_PT201H.grib2 2026-04-30 04:34 956K
20260430T00Z_MSC_GDPS_WindU_IsbL-0001_LatLon0.15_PT201H.grib2 2026-04-30 04:34 503K
20260430T00Z_MSC_GDPS_WindU_IsbL-0005_LatLon0.15_PT201H.grib2 2026-04-30 04:34 688K
20260430T00Z_MSC_GDPS_WindU_IsbL-0500_LatLon0.15_PT201H.grib2 2026-04-30 04:34 1.1M
20260430T00Z_MSC_GDPS_WindU_IsbL-0700_LatLon0.15_PT201H.grib2 2026-04-30 04:34 1.2M
20260430T00Z_MSC_GDPS_WindU_IsbL-0850_LatLon0.15_PT201H.grib2 2026-04-30 04:34 1.4M
20260430T00Z_MSC_GDPS_WindU_IsbL-0925_LatLon0.15_PT201H.grib2 2026-04-30 04:34 1.4M
20260430T00Z_MSC_GDPS_WindU_IsbL-1000_LatLon0.15_PT201H.grib2 2026-04-30 04:34 1.4M
20260430T00Z_MSC_GDPS_WindV_AGL-10m_LatLon0.15_PT201H.grib2 2026-04-30 04:34 1.3M
20260430T00Z_MSC_GDPS_WindV_AGL-120m_LatLon0.15_PT201H.grib2 2026-04-30 04:34 1.0M
20260430T00Z_MSC_GDPS_WindV_AGL-40m_LatLon0.15_PT201H.grib2 2026-04-30 04:34 951K
20260430T00Z_MSC_GDPS_WindV_AGL-80m_LatLon0.15_PT201H.grib2 2026-04-30 04:34 1.0M
20260430T00Z_MSC_GDPS_WindV_IsbL-0001_LatLon0.15_PT201H.grib2 2026-04-30 04:34 559K
20260430T00Z_MSC_GDPS_WindV_IsbL-0005_LatLon0.15_PT201H.grib2 2026-04-30 04:34 853K
20260430T00Z_MSC_GDPS_WindV_IsbL-0500_LatLon0.15_PT201H.grib2 2026-04-30 04:34 1.1M
20260430T00Z_MSC_GDPS_WindV_IsbL-0700_LatLon0.15_PT201H.grib2 2026-04-30 04:34 1.2M
20260430T00Z_MSC_GDPS_WindV_IsbL-0850_LatLon0.15_PT201H.grib2 2026-04-30 04:34 1.4M
20260430T00Z_MSC_GDPS_WindV_IsbL-0925_LatLon0.15_PT201H.grib2 2026-04-30 04:34 1.4M
20260430T00Z_MSC_GDPS_WindV_IsbL-1000_LatLon0.15_PT201H.grib2 2026-04-30 04:34 1.4M